Overview Statistics Trail Chart Weather Telemetry Raw packets
 

This is the latest recevied weather packets stored in our database for station/object KK7MLS-13. If no packets are shown the sender has not sent any weather packets the latest 10 day(s).

<< 56 57 58 59 60 61 62 >>
Time Temp. Humidity Pressure Rain* Wind** Luminosity Snow
1788294874 18.33° C 70% 1011.8 hPa 0 mm - 43 W/m² -
1788294569 18.33° C 71% 1011.9 hPa 0 mm - 66 W/m² -
1788294264 18.33° C 72% 1012 hPa 0 mm - 109 W/m² -
1788293960 18.33° C 71% 1012 hPa 0 mm - 116 W/m² -
1788293660 18.33° C 71% 1011.9 hPa 0 mm - 94 W/m² -
1788293354 18.33° C 71% 1012 hPa 0 mm - 103 W/m² -
1788293049 18.33° C 72% 1012 hPa 0 mm - 85 W/m² -
1788292748 17.78° C 73% 1012.1 hPa 0 mm - 112 W/m² -
1788292447 17.78° C 72% 1012.1 hPa 0 mm - 130 W/m² -
1788292142 18.33° C 73% 1011.9 hPa 0 mm - 114 W/m² -
1788291836 18.33° C 71% 1012 hPa 0 mm - 80 W/m² -
1788291540 18.33° C 72% 1012.1 hPa 0 mm - 106 W/m² -
1788291232 18.33° C 73% 1012.2 hPa 0 mm - 145 W/m² -
1788290931 18.89° C 71% 1012.1 hPa 0 mm - 70 W/m² -
1788290627 18.89° C 70% 1012.1 hPa 0 mm - 89 W/m² -
1788290323 18.89° C 73% 1012.3 hPa 0 mm - 196 W/m² -
1788290018 18.89° C 73% 1012.5 hPa 0 mm - 330 W/m² -
1788289715 18.89° C 72% 1012.4 hPa 0 mm - 181 W/m² -
1788289414 18.33° C 77% 1012.5 hPa 0 mm - 238 W/m² -
1788289113 18.33° C 75% 1012.3 hPa 0 mm - 287 W/m² -
1788288812 17.78° C 76% 1012.5 hPa 0 mm - 245 W/m² -
1788288507 17.78° C 79% 1012.5 hPa 0 mm - 254 W/m² -
1788288203 17.22° C 80% 1012.6 hPa 0 mm - 119 W/m² -
1788287898 17.22° C 81% 1012.7 hPa 0 mm - 138 W/m² -
1788287598 17.22° C 80% 1012.4 hPa 0 mm - 226 W/m² -

* Rain latest hour (hover to see other rain measurements)
** Current wind speed in m/s (hover to see current wind gust speed)